Year,Month,Day,Hour,Minute,Value (Times are PST for temperature in C)
2008,11,25,00,00,2.40
2008,11,25,00,01,2.50
2008,11,25,00,02,2.50
2008,11,25,00,03,2.60
2008,11,25,00,04,2.60
2008,11,25,00,05,2.50
2008,11,25,00,06,2.50
2008,11,25,00,07,2.50
2008,11,25,00,08,2.40
2008,11,25,00,09,2.40
2008,11,25,00,10,2.40
2008,11,25,00,11,2.40
2008,11,25,00,12,2.40
2008,11,25,00,13,2.40
2008,11,25,00,14,2.30
2008,11,25,00,15,2.30
2008,11,25,00,16,2.30
2008,11,25,00,17,2.30
2008,11,25,00,18,2.40
2008,11,25,00,19,2.40
2008,11,25,00,20,2.30
2008,11,25,00,21,2.30
2008,11,25,00,22,2.30
2008,11,25,00,23,2.30
2008,11,25,00,24,2.30
2008,11,25,00,25,2.30
2008,11,25,00,26,2.40
2008,11,25,00,27,2.40
2008,11,25,00,28,2.40
2008,11,25,00,29,2.40
2008,11,25,00,30,2.40
2008,11,25,00,31,2.40
2008,11,25,00,32,2.40
2008,11,25,00,33,2.40
2008,11,25,00,34,2.40
2008,11,25,00,35,2.40
2008,11,25,00,36,2.40
2008,11,25,00,37,2.40
2008,11,25,00,38,2.40
2008,11,25,00,39,2.40
2008,11,25,00,40,2.30
2008,11,25,00,41,2.30
2008,11,25,00,42,2.30
2008,11,25,00,43,2.30
2008,11,25,00,44,2.20
2008,11,25,00,45,2.20
2008,11,25,00,46,2.20
2008,11,25,00,47,2.20
2008,11,25,00,48,2.20
2008,11,25,00,49,2.20
2008,11,25,00,50,2.20
2008,11,25,00,51,2.20
2008,11,25,00,52,2.20
2008,11,25,00,53,2.20
2008,11,25,00,54,2.20
2008,11,25,00,55,2.20
2008,11,25,00,56,2.20
2008,11,25,00,57,2.20
2008,11,25,00,58,2.30
2008,11,25,00,59,2.30
2008,11,25,01,00,2.40
2008,11,25,01,01,2.40
2008,11,25,01,02,2.40
2008,11,25,01,03,2.50
2008,11,25,01,04,2.50
2008,11,25,01,05,2.60
2008,11,25,01,06,2.50
2008,11,25,01,07,2.50
2008,11,25,01,08,2.40
2008,11,25,01,09,2.40
2008,11,25,01,10,2.30
2008,11,25,01,11,2.30
2008,11,25,01,12,2.30
2008,11,25,01,13,2.30
2008,11,25,01,14,2.40
2008,11,25,01,15,2.50
2008,11,25,01,16,2.50
2008,11,25,01,17,2.60
2008,11,25,01,18,2.60
2008,11,25,01,19,2.70
2008,11,25,01,20,2.70
2008,11,25,01,21,2.70
2008,11,25,01,22,2.70
2008,11,25,01,23,2.60
2008,11,25,01,24,2.50
2008,11,25,01,25,2.50
2008,11,25,01,26,2.40
2008,11,25,01,27,2.40
2008,11,25,01,28,2.40
2008,11,25,01,29,2.40
2008,11,25,01,30,2.40
2008,11,25,01,31,2.40
2008,11,25,01,32,2.50
2008,11,25,01,33,2.50
2008,11,25,01,34,2.60
2008,11,25,01,35,2.60
2008,11,25,01,36,2.60
2008,11,25,01,37,2.60
2008,11,25,01,38,2.60
2008,11,25,01,39,2.50
2008,11,25,01,40,2.40
2008,11,25,01,41,2.40
2008,11,25,01,42,2.30
2008,11,25,01,43,2.30
2008,11,25,01,44,2.30
2008,11,25,01,45,2.40
2008,11,25,01,46,2.40
2008,11,25,01,47,2.50
2008,11,25,01,48,2.50
2008,11,25,01,49,2.60
2008,11,25,01,50,2.70
2008,11,25,01,51,2.70
2008,11,25,01,52,2.80
2008,11,25,01,53,2.80
2008,11,25,01,54,2.80
2008,11,25,01,55,2.80
2008,11,25,01,56,2.80
2008,11,25,01,57,2.70
2008,11,25,01,58,2.60
2008,11,25,01,59,2.60
2008,11,25,02,00,2.60
2008,11,25,02,01,2.50
2008,11,25,02,02,2.50
2008,11,25,02,03,2.40
2008,11,25,02,04,2.40
2008,11,25,02,05,2.50
2008,11,25,02,06,2.50
2008,11,25,02,07,2.60
2008,11,25,02,08,2.60
2008,11,25,02,09,2.60
2008,11,25,02,10,2.60
2008,11,25,02,11,2.60
2008,11,25,02,12,2.60
2008,11,25,02,13,2.50
2008,11,25,02,14,2.50
2008,11,25,02,15,2.50
2008,11,25,02,16,2.40
2008,11,25,02,17,2.40
2008,11,25,02,18,2.40
2008,11,25,02,19,2.40
2008,11,25,02,20,2.40
2008,11,25,02,21,2.40
2008,11,25,02,22,2.50
2008,11,25,02,23,2.50
2008,11,25,02,24,2.50
2008,11,25,02,25,2.60
2008,11,25,02,26,2.60
2008,11,25,02,27,2.60
2008,11,25,02,28,2.60
2008,11,25,02,29,2.70
2008,11,25,02,30,2.70
2008,11,25,02,31,2.70
2008,11,25,02,32,2.70
2008,11,25,02,33,2.70
2008,11,25,02,34,2.70
2008,11,25,02,35,2.70
2008,11,25,02,36,2.90
2008,11,25,02,37,3.00
2008,11,25,02,38,3.00
2008,11,25,02,39,3.00
2008,11,25,02,40,3.10
2008,11,25,02,41,3.10
2008,11,25,02,42,3.10
2008,11,25,02,43,3.10
2008,11,25,02,44,3.60
2008,11,25,02,45,3.50
2008,11,25,02,46,3.60
2008,11,25,02,47,3.70
2008,11,25,02,48,3.80
2008,11,25,02,49,4.00
2008,11,25,02,50,4.20
2008,11,25,02,51,4.30
2008,11,25,02,52,4.40
2008,11,25,02,53,4.40
2008,11,25,02,54,4.40
2008,11,25,02,55,4.40
2008,11,25,02,56,4.40
2008,11,25,02,57,4.30
2008,11,25,02,58,4.20
2008,11,25,02,59,4.10
2008,11,25,03,00,3.90
2008,11,25,03,01,3.80
2008,11,25,03,02,3.70
2008,11,25,03,03,3.60
2008,11,25,03,04,3.50
2008,11,25,03,05,3.50
2008,11,25,03,06,3.40
2008,11,25,03,07,3.40
2008,11,25,03,08,3.40
2008,11,25,03,09,3.50
2008,11,25,03,10,3.50
2008,11,25,03,11,3.50
2008,11,25,03,12,3.50
2008,11,25,03,13,3.50
2008,11,25,03,14,3.50
2008,11,25,03,15,3.60
2008,11,25,03,16,3.90
2008,11,25,03,17,4.30
2008,11,25,03,18,4.60
2008,11,25,03,19,4.80
2008,11,25,03,20,5.00
2008,11,25,03,21,5.20
2008,11,25,03,22,5.30
2008,11,25,03,23,5.50
2008,11,25,03,24,5.60
2008,11,25,03,25,5.70
2008,11,25,03,26,5.80
2008,11,25,03,27,5.90
2008,11,25,03,28,6.00
2008,11,25,03,29,6.10
2008,11,25,03,30,6.20
2008,11,25,03,31,6.30
2008,11,25,03,32,6.40
2008,11,25,03,33,6.40
2008,11,25,03,34,6.50
2008,11,25,03,35,6.50
2008,11,25,03,36,6.60
2008,11,25,03,37,6.60
2008,11,25,03,38,6.70
2008,11,25,03,39,6.70
2008,11,25,03,40,6.80
2008,11,25,03,41,6.80
2008,11,25,03,42,6.80
2008,11,25,03,43,6.90
2008,11,25,03,44,6.90
2008,11,25,03,45,6.90
2008,11,25,03,46,6.90
2008,11,25,03,47,6.90
2008,11,25,03,48,6.90
2008,11,25,03,49,6.90
2008,11,25,03,50,6.90
2008,11,25,03,51,6.90
2008,11,25,03,52,6.90
2008,11,25,03,53,6.90
2008,11,25,03,54,6.90
2008,11,25,03,55,6.80
2008,11,25,03,56,6.80
2008,11,25,03,57,6.80
2008,11,25,03,58,6.80
2008,11,25,03,59,6.80
2008,11,25,04,00,6.80
2008,11,25,04,01,6.80
2008,11,25,04,02,6.80
2008,11,25,04,03,6.80
2008,11,25,04,04,6.90
2008,11,25,04,05,6.90
2008,11,25,04,06,6.90
2008,11,25,04,09,6.90
2008,11,25,04,10,6.90
2008,11,25,04,12,6.90
2008,11,25,04,13,7.00
2008,11,25,04,14,7.00
2008,11,25,04,15,7.00
2008,11,25,04,16,7.10
2008,11,25,04,17,7.10
2008,11,25,04,18,7.10
2008,11,25,04,19,7.10
2008,11,25,04,20,7.10
2008,11,25,04,21,7.10
2008,11,25,04,22,7.10
2008,11,25,04,23,7.10
2008,11,25,04,24,7.10
2008,11,25,04,25,7.10
2008,11,25,04,26,7.10
2008,11,25,04,27,7.10
2008,11,25,04,28,7.10
2008,11,25,04,29,7.10
2008,11,25,04,30,7.10
2008,11,25,04,31,7.10
2008,11,25,04,32,7.10
2008,11,25,04,33,7.10
2008,11,25,04,34,7.10
2008,11,25,04,35,7.10
2008,11,25,04,36,7.10
2008,11,25,04,37,7.10
2008,11,25,04,38,7.20
2008,11,25,04,39,7.20
2008,11,25,04,40,7.20
2008,11,25,04,41,7.20
2008,11,25,04,42,7.20
2008,11,25,04,43,7.20
2008,11,25,04,44,7.20
2008,11,25,04,45,7.10
2008,11,25,04,46,7.00
2008,11,25,04,47,7.00
2008,11,25,04,48,6.90
2008,11,25,04,49,6.80
2008,11,25,04,50,6.70
2008,11,25,04,51,6.60
2008,11,25,04,52,6.50
2008,11,25,04,53,6.40
2008,11,25,04,54,6.30
2008,11,25,04,55,6.20
2008,11,25,04,56,6.10
2008,11,25,04,57,6.00
2008,11,25,04,58,5.80
2008,11,25,04,59,5.80
2008,11,25,05,00,5.70
2008,11,25,05,01,5.70
2008,11,25,05,02,5.70
2008,11,25,05,03,5.60
2008,11,25,05,04,5.60
2008,11,25,05,05,5.60
2008,11,25,05,06,5.50
2008,11,25,05,07,5.40
2008,11,25,05,08,5.40
2008,11,25,05,09,5.30
2008,11,25,05,10,5.30
2008,11,25,05,11,5.30
2008,11,25,05,12,5.30
2008,11,25,05,13,5.30
2008,11,25,05,14,5.30
2008,11,25,05,15,5.30
2008,11,25,05,16,5.30
2008,11,25,05,17,5.30
2008,11,25,05,18,5.20
2008,11,25,05,19,5.20
2008,11,25,05,20,5.10
2008,11,25,05,21,5.10
2008,11,25,05,22,5.00
2008,11,25,05,23,5.00
2008,11,25,05,24,5.00
2008,11,25,05,25,5.00
2008,11,25,05,26,5.00
2008,11,25,05,27,4.90
2008,11,25,05,28,4.90
2008,11,25,05,29,4.90
2008,11,25,05,30,4.90
2008,11,25,05,31,4.90
2008,11,25,05,32,4.80
2008,11,25,05,33,4.90
2008,11,25,05,34,4.90
2008,11,25,05,35,4.90
2008,11,25,05,36,4.90
2008,11,25,05,37,4.90
2008,11,25,05,38,4.90
2008,11,25,05,39,4.90
2008,11,25,05,40,4.90
2008,11,25,05,41,4.90
2008,11,25,05,42,5.00
2008,11,25,05,43,5.00
2008,11,25,05,44,5.10
2008,11,25,05,45,5.10
2008,11,25,05,46,5.20
2008,11,25,05,47,5.20
2008,11,25,05,48,5.20
2008,11,25,05,49,5.20
2008,11,25,05,50,5.20
2008,11,25,05,51,5.20
2008,11,25,05,52,5.20
2008,11,25,05,53,5.20
2008,11,25,05,54,5.20
2008,11,25,05,55,5.10
2008,11,25,05,56,5.10
2008,11,25,05,57,5.10
2008,11,25,05,58,5.10
2008,11,25,05,59,5.00
2008,11,25,06,00,5.00
2008,11,25,06,01,5.00
2008,11,25,06,02,5.00
2008,11,25,06,03,5.00
2008,11,25,06,04,5.00
2008,11,25,06,05,4.90
2008,11,25,06,06,4.90
2008,11,25,06,07,4.90
2008,11,25,06,08,5.00
2008,11,25,06,09,5.00
2008,11,25,06,10,5.00
2008,11,25,06,11,5.10
2008,11,25,06,12,5.10
2008,11,25,06,13,5.10
2008,11,25,06,14,5.10
2008,11,25,06,15,5.10
2008,11,25,06,16,5.10
2008,11,25,06,17,5.10
2008,11,25,06,18,5.10
2008,11,25,06,19,5.10
2008,11,25,06,20,5.20
2008,11,25,06,21,5.20
2008,11,25,06,22,5.30
2008,11,25,06,23,5.30
2008,11,25,06,24,5.40
2008,11,25,06,25,5.50
2008,11,25,06,26,5.60
2008,11,25,06,27,5.70
2008,11,25,06,28,5.80
2008,11,25,06,29,5.90
2008,11,25,06,30,6.00
2008,11,25,06,31,6.20
2008,11,25,06,32,6.30
2008,11,25,06,33,6.40
2008,11,25,06,34,6.50
2008,11,25,06,35,6.60
2008,11,25,06,36,6.70
2008,11,25,06,37,6.70
2008,11,25,06,38,6.80
2008,11,25,06,39,6.80
2008,11,25,06,40,6.90
2008,11,25,06,41,6.90
2008,11,25,06,42,7.00
2008,11,25,06,43,7.00
2008,11,25,06,44,7.00
2008,11,25,06,45,7.10
2008,11,25,06,46,7.10
2008,11,25,06,47,7.10
2008,11,25,06,48,7.10
2008,11,25,06,49,7.10
2008,11,25,06,50,7.10
2008,11,25,06,51,7.10
2008,11,25,06,52,7.20
2008,11,25,06,53,7.20
2008,11,25,06,54,7.20
2008,11,25,06,55,7.20
2008,11,25,06,56,7.20
2008,11,25,06,57,7.20
2008,11,25,06,58,7.20
2008,11,25,06,59,7.20
2008,11,25,07,00,7.20
2008,11,25,07,01,7.20
2008,11,25,07,02,7.20
2008,11,25,07,03,7.20
2008,11,25,07,04,7.20
2008,11,25,07,05,7.20
2008,11,25,07,06,7.20
2008,11,25,07,07,7.20
2008,11,25,07,08,7.20
2008,11,25,07,09,7.20
2008,11,25,07,10,7.20
2008,11,25,07,11,7.20
2008,11,25,07,12,7.20
2008,11,25,07,13,7.20
2008,11,25,07,14,7.20
2008,11,25,07,15,7.20
2008,11,25,07,16,7.20
2008,11,25,07,17,7.20
2008,11,25,07,18,7.20
2008,11,25,07,19,7.20
2008,11,25,07,20,7.20
2008,11,25,07,21,7.20
2008,11,25,07,22,7.20
2008,11,25,07,23,7.30
2008,11,25,07,24,7.30
2008,11,25,07,25,7.30
2008,11,25,07,26,7.30
2008,11,25,07,27,7.30
2008,11,25,07,28,7.30
2008,11,25,07,29,7.30
2008,11,25,07,30,7.30
2008,11,25,07,31,7.30
2008,11,25,07,32,7.30
2008,11,25,07,33,7.30
2008,11,25,07,34,7.30
2008,11,25,07,35,7.30
2008,11,25,07,36,7.30
2008,11,25,07,37,7.30
2008,11,25,07,38,7.30
2008,11,25,07,39,7.30
2008,11,25,07,40,7.30
2008,11,25,07,41,7.30
2008,11,25,07,42,7.30
2008,11,25,07,43,7.40
2008,11,25,07,44,7.40
2008,11,25,07,45,7.40
2008,11,25,07,46,7.40
2008,11,25,07,47,7.40
2008,11,25,07,48,7.40
2008,11,25,07,49,7.40
2008,11,25,07,50,7.40
2008,11,25,07,51,7.40
2008,11,25,07,52,7.40
2008,11,25,07,53,7.30
2008,11,25,07,54,7.30
2008,11,25,07,55,7.30
2008,11,25,07,56,7.30
2008,11,25,07,57,7.30
2008,11,25,07,58,7.30
2008,11,25,07,59,7.30
2008,11,25,08,00,7.30
2008,11,25,08,01,7.30
2008,11,25,08,02,7.30
2008,11,25,08,03,7.30
2008,11,25,08,04,7.30
2008,11,25,08,05,7.30
2008,11,25,08,06,7.30
2008,11,25,08,07,7.30
2008,11,25,08,08,7.30
2008,11,25,08,09,7.30
2008,11,25,08,10,7.30
2008,11,25,08,11,7.30
2008,11,25,08,12,7.30
2008,11,25,08,13,7.30
2008,11,25,08,14,7.30
2008,11,25,08,15,7.30
2008,11,25,08,16,7.30
2008,11,25,08,17,7.30
2008,11,25,08,18,7.30
2008,11,25,08,19,7.30
2008,11,25,08,20,7.30
2008,11,25,08,21,7.30
2008,11,25,08,22,7.30
2008,11,25,08,23,7.30
2008,11,25,08,24,7.30
2008,11,25,08,25,7.30
2008,11,25,08,26,7.30
2008,11,25,08,27,7.30
2008,11,25,08,28,7.30
2008,11,25,08,29,7.30
2008,11,25,08,30,7.30
2008,11,25,08,31,7.30
2008,11,25,08,32,7.30
2008,11,25,08,33,7.30
2008,11,25,08,34,7.30
2008,11,25,08,35,7.30
2008,11,25,08,36,7.30
2008,11,25,08,37,7.30
2008,11,25,08,38,7.30
2008,11,25,08,39,7.30
2008,11,25,08,40,7.20
2008,11,25,08,41,7.20
2008,11,25,08,42,7.20
2008,11,25,08,43,7.20
2008,11,25,08,44,7.20
2008,11,25,08,45,7.20
2008,11,25,08,46,7.20
2008,11,25,08,47,7.20
2008,11,25,08,48,7.20
2008,11,25,08,49,7.20
2008,11,25,08,50,7.20
2008,11,25,08,51,7.20
2008,11,25,08,52,7.20
2008,11,25,08,53,7.20
2008,11,25,08,54,7.20
2008,11,25,08,55,7.20
2008,11,25,08,56,7.20
2008,11,25,08,57,7.20
2008,11,25,08,58,7.20
2008,11,25,08,59,7.20
2008,11,25,09,00,7.20
2008,11,25,09,01,7.20
2008,11,25,09,02,7.20
2008,11,25,09,03,7.20
2008,11,25,09,04,7.20
2008,11,25,09,05,7.20
2008,11,25,09,06,7.20
2008,11,25,09,07,7.20
2008,11,25,09,08,7.20
2008,11,25,09,09,7.20
2008,11,25,09,10,7.20
2008,11,25,09,11,7.30
2008,11,25,09,12,7.30
2008,11,25,09,13,7.30
2008,11,25,09,14,7.30
2008,11,25,09,15,7.30
2008,11,25,09,16,7.30
2008,11,25,09,17,7.30
2008,11,25,09,18,7.30
2008,11,25,09,19,7.30
2008,11,25,09,20,7.30
2008,11,25,09,21,7.30
2008,11,25,09,22,7.30
2008,11,25,09,23,7.30
2008,11,25,09,24,7.30
2008,11,25,09,25,7.30
2008,11,25,09,26,7.30
2008,11,25,09,27,7.30
2008,11,25,09,28,7.30
2008,11,25,09,29,7.30
2008,11,25,09,30,7.30
2008,11,25,09,31,7.30
2008,11,25,09,32,7.40
2008,11,25,09,33,7.40
2008,11,25,09,34,7.40
2008,11,25,09,35,7.40
2008,11,25,09,36,7.40
2008,11,25,09,37,7.40
2008,11,25,09,38,7.40
2008,11,25,09,39,7.40
2008,11,25,09,40,7.40
2008,11,25,09,41,7.40
2008,11,25,09,42,7.50
2008,11,25,09,43,7.50
2008,11,25,09,44,7.50
2008,11,25,09,45,7.50
2008,11,25,09,46,7.50
2008,11,25,09,47,7.50
2008,11,25,09,48,7.50
2008,11,25,09,49,7.50
2008,11,25,09,50,7.60
2008,11,25,09,51,7.60
2008,11,25,09,52,7.60
2008,11,25,09,53,7.60
2008,11,25,09,54,7.60
2008,11,25,09,55,7.60
2008,11,25,09,56,7.60
2008,11,25,09,57,7.60
2008,11,25,09,58,7.70
2008,11,25,09,59,7.70
2008,11,25,10,00,7.70
2008,11,25,10,01,7.70
2008,11,25,10,02,7.80
2008,11,25,10,03,7.80
2008,11,25,10,04,7.80
2008,11,25,10,05,7.80
2008,11,25,10,06,7.80
2008,11,25,10,07,7.80
2008,11,25,10,08,7.80
2008,11,25,10,09,7.80
2008,11,25,10,10,7.80
2008,11,25,10,11,7.90
2008,11,25,10,12,7.90
2008,11,25,10,13,7.90
2008,11,25,10,14,7.90
2008,11,25,10,15,7.90
2008,11,25,10,16,7.90
2008,11,25,10,17,7.90
2008,11,25,10,18,7.90
2008,11,25,10,19,8.00
2008,11,25,10,20,8.00
2008,11,25,10,21,8.00
2008,11,25,10,22,8.00
2008,11,25,10,23,8.00
2008,11,25,10,24,8.00
2008,11,25,10,25,8.00
2008,11,25,10,26,8.10
2008,11,25,10,27,8.10
2008,11,25,10,28,8.10
2008,11,25,10,29,8.10
2008,11,25,10,30,8.10
2008,11,25,10,31,8.10
2008,11,25,10,32,8.10
2008,11,25,10,33,8.10
2008,11,25,10,34,8.10
2008,11,25,10,35,8.10
2008,11,25,10,36,8.10
2008,11,25,10,37,8.10
2008,11,25,10,38,8.20
2008,11,25,10,39,8.30
2008,11,25,10,40,8.40
2008,11,25,10,41,8.60
2008,11,25,10,42,8.70
2008,11,25,10,43,8.80
2008,11,25,10,44,8.90
2008,11,25,10,45,9.00
2008,11,25,10,46,9.10
2008,11,25,10,47,9.10
2008,11,25,10,48,9.20
2008,11,25,10,49,9.20
2008,11,25,10,50,9.30
2008,11,25,10,51,9.30
2008,11,25,10,52,9.30
2008,11,25,10,53,9.40
2008,11,25,10,54,9.40
2008,11,25,10,55,9.50
2008,11,25,10,56,9.50
2008,11,25,10,57,9.60
2008,11,25,10,58,9.60
2008,11,25,10,59,9.60
2008,11,25,11,00,9.60
2008,11,25,11,01,9.60
2008,11,25,11,02,9.60
2008,11,25,11,03,9.50
2008,11,25,11,04,9.50
2008,11,25,11,05,9.50
2008,11,25,11,06,9.50
2008,11,25,11,07,9.60
2008,11,25,11,08,9.60
2008,11,25,11,09,9.60
2008,11,25,11,10,9.60
2008,11,25,11,11,9.70
2008,11,25,11,12,9.70
2008,11,25,11,13,9.70
2008,11,25,11,14,9.80
2008,11,25,11,15,9.80
2008,11,25,11,16,9.90
2008,11,25,11,17,9.90
2008,11,25,11,18,10.00
2008,11,25,11,19,10.00
2008,11,25,11,20,10.10
2008,11,25,11,21,10.10
2008,11,25,11,22,10.20
2008,11,25,11,23,10.20
2008,11,25,11,24,10.20
2008,11,25,11,25,10.20
2008,11,25,11,26,10.20
2008,11,25,11,27,10.20
2008,11,25,11,28,10.20
2008,11,25,11,29,10.20
2008,11,25,11,30,10.20
2008,11,25,11,31,10.20
2008,11,25,11,32,10.20
2008,11,25,11,33,10.20
2008,11,25,11,34,10.20
2008,11,25,11,35,10.10
2008,11,25,11,36,10.10
2008,11,25,11,37,10.10
2008,11,25,11,38,10.10
2008,11,25,11,39,10.10
2008,11,25,11,40,10.10
2008,11,25,11,41,10.10
2008,11,25,11,42,10.10
2008,11,25,11,43,10.00
2008,11,25,11,44,10.00
2008,11,25,11,45,10.00
2008,11,25,11,46,10.00
2008,11,25,11,47,9.90
2008,11,25,11,48,9.90
2008,11,25,11,49,9.80
2008,11,25,11,50,9.80
2008,11,25,11,51,9.70
2008,11,25,11,52,9.60
2008,11,25,11,53,9.50
2008,11,25,11,54,9.40
2008,11,25,11,55,9.30
2008,11,25,11,56,9.30
2008,11,25,11,57,9.30
2008,11,25,11,58,9.30
2008,11,25,11,59,9.20
2008,11,25,12,00,9.20
2008,11,25,12,01,9.20
2008,11,25,12,02,9.20
2008,11,25,12,03,9.20
2008,11,25,12,04,9.20
2008,11,25,12,05,9.20
2008,11,25,12,06,9.20
2008,11,25,12,07,9.20
2008,11,25,12,08,9.30
2008,11,25,12,09,9.40
2008,11,25,12,10,9.50
2008,11,25,12,11,9.60
2008,11,25,12,12,9.60
2008,11,25,12,13,9.70
2008,11,25,12,14,9.80
2008,11,25,12,15,10.00
2008,11,25,12,16,10.10
2008,11,25,12,17,10.20
2008,11,25,12,18,10.40
2008,11,25,12,19,10.50
2008,11,25,12,20,10.60
2008,11,25,12,21,10.60
2008,11,25,12,22,10.70
2008,11,25,12,23,10.70
2008,11,25,12,24,10.80
2008,11,25,12,25,10.90
2008,11,25,12,26,11.00
2008,11,25,12,27,11.00
2008,11,25,12,28,11.10
2008,11,25,12,29,11.20
2008,11,25,12,30,11.20
2008,11,25,12,31,11.20
2008,11,25,12,32,11.30
2008,11,25,12,33,11.30
2008,11,25,12,34,11.30
2008,11,25,12,35,11.40
2008,11,25,12,36,11.40
2008,11,25,12,37,11.40
2008,11,25,12,38,11.40
2008,11,25,12,39,11.50
2008,11,25,12,40,11.50
2008,11,25,12,41,11.60
2008,11,25,12,42,11.50
2008,11,25,12,43,11.50
2008,11,25,12,44,11.40
2008,11,25,12,45,11.40
2008,11,25,12,46,11.40
2008,11,25,12,47,11.40
2008,11,25,12,48,11.40
2008,11,25,12,49,11.40
2008,11,25,12,50,11.40
2008,11,25,12,51,11.40
2008,11,25,12,52,11.40
2008,11,25,12,53,11.40
2008,11,25,12,54,11.40
2008,11,25,12,55,11.50
2008,11,25,12,56,11.50
2008,11,25,12,57,11.50
2008,11,25,12,58,11.60
2008,11,25,12,59,11.60
2008,11,25,13,00,11.60
2008,11,25,13,01,11.60
2008,11,25,13,02,11.60
2008,11,25,13,03,11.60
2008,11,25,13,04,11.50
2008,11,25,13,05,11.50
2008,11,25,13,06,11.40
2008,11,25,13,07,11.40
2008,11,25,13,08,11.40
2008,11,25,13,09,11.40
2008,11,25,13,10,11.40
2008,11,25,13,11,11.40
2008,11,25,13,12,11.40
2008,11,25,13,13,11.40
2008,11,25,13,14,11.40
2008,11,25,13,15,11.40
2008,11,25,13,16,11.40
2008,11,25,13,17,11.40
2008,11,25,13,18,11.40
2008,11,25,13,19,11.40
2008,11,25,13,20,11.40
2008,11,25,13,21,11.50
2008,11,25,13,22,11.50
2008,11,25,13,23,11.50
2008,11,25,13,24,11.50
2008,11,25,13,25,11.50
2008,11,25,13,26,11.50
2008,11,25,13,27,11.60
2008,11,25,13,28,11.60
2008,11,25,13,29,11.60
2008,11,25,13,30,11.60
2008,11,25,13,31,11.60
2008,11,25,13,32,11.60
2008,11,25,13,33,11.70
2008,11,25,13,34,11.70
2008,11,25,13,35,11.80
2008,11,25,13,36,11.80
2008,11,25,13,37,11.80
2008,11,25,13,38,11.80
2008,11,25,13,39,11.90
2008,11,25,13,40,11.90
2008,11,25,13,41,11.90
2008,11,25,13,42,11.90
2008,11,25,13,43,11.90
2008,11,25,13,44,11.90
2008,11,25,13,45,11.90
2008,11,25,13,46,11.90
2008,11,25,13,47,12.00
2008,11,25,13,48,12.00
2008,11,25,13,49,12.00
2008,11,25,13,50,12.00
2008,11,25,13,51,12.00
2008,11,25,13,52,12.00
2008,11,25,13,53,12.00
2008,11,25,13,54,12.00
2008,11,25,13,55,12.00
2008,11,25,13,56,12.00
2008,11,25,13,57,12.00
2008,11,25,13,58,11.90
2008,11,25,13,59,12.00
2008,11,25,14,00,12.00
2008,11,25,14,01,12.00
2008,11,25,14,02,12.00
2008,11,25,14,03,12.00
2008,11,25,14,04,12.10
2008,11,25,14,05,12.10
2008,11,25,14,06,12.10
2008,11,25,14,07,12.10
2008,11,25,14,08,12.10
2008,11,25,14,09,12.10
2008,11,25,14,10,12.10
2008,11,25,14,11,12.10
2008,11,25,14,12,12.10
2008,11,25,14,13,12.00
2008,11,25,14,14,12.00
2008,11,25,14,15,12.00
2008,11,25,14,16,12.00
2008,11,25,14,17,12.00
2008,11,25,14,18,12.00
2008,11,25,14,19,12.00
2008,11,25,14,20,12.10
2008,11,25,14,21,12.00
2008,11,25,14,22,12.00
2008,11,25,14,23,12.00
2008,11,25,14,24,12.00
2008,11,25,14,25,12.00
2008,11,25,14,26,12.00
2008,11,25,14,27,12.00
2008,11,25,14,28,12.00
2008,11,25,14,29,11.90
2008,11,25,14,30,11.90
2008,11,25,14,31,11.90
2008,11,25,14,32,11.90
2008,11,25,14,33,11.90
2008,11,25,14,34,11.80
2008,11,25,14,35,11.80
2008,11,25,14,36,11.80
2008,11,25,14,37,11.80
2008,11,25,14,38,11.80
2008,11,25,14,39,11.80
2008,11,25,14,40,11.80
2008,11,25,14,41,11.80
2008,11,25,14,42,11.80
2008,11,25,14,43,11.80
2008,11,25,14,44,11.80
2008,11,25,14,45,11.70
2008,11,25,14,46,11.70
2008,11,25,14,47,11.70
2008,11,25,14,48,11.80
2008,11,25,14,49,11.70
2008,11,25,14,50,11.60
2008,11,25,14,51,11.50
2008,11,25,14,52,11.30
2008,11,25,14,53,11.20
2008,11,25,14,54,11.20
2008,11,25,14,55,11.20
2008,11,25,14,56,11.20
2008,11,25,14,57,11.10
2008,11,25,14,58,11.10
2008,11,25,14,59,11.00
2008,11,25,15,00,10.80
2008,11,25,15,01,10.60
2008,11,25,15,02,10.50
2008,11,25,15,03,10.40
2008,11,25,15,04,10.20
2008,11,25,15,05,10.10
2008,11,25,15,06,10.00
2008,11,25,15,07,9.90
2008,11,25,15,08,9.80
2008,11,25,15,09,9.80
2008,11,25,15,10,9.70
2008,11,25,15,11,9.60
2008,11,25,15,12,9.50
2008,11,25,15,13,9.40
2008,11,25,15,14,9.30
2008,11,25,15,15,9.20
2008,11,25,15,16,9.00
2008,11,25,15,17,8.90
2008,11,25,15,18,8.80
2008,11,25,15,19,8.90
2008,11,25,15,20,8.90
2008,11,25,15,21,9.00
2008,11,25,15,22,9.20
2008,11,25,15,23,9.30
2008,11,25,15,24,9.40
2008,11,25,15,25,9.50
2008,11,25,15,26,9.60
2008,11,25,15,27,9.60
2008,11,25,15,28,9.70
2008,11,25,15,29,9.80
2008,11,25,15,30,9.80
2008,11,25,15,31,9.90
2008,11,25,15,32,10.00
2008,11,25,15,33,10.10
2008,11,25,15,34,10.20
2008,11,25,15,35,10.30
2008,11,25,15,36,10.30
2008,11,25,15,37,10.30
2008,11,25,15,38,10.30
2008,11,25,15,39,10.30
2008,11,25,15,40,10.40
2008,11,25,15,41,10.40
2008,11,25,15,42,10.40
2008,11,25,15,43,10.40
2008,11,25,15,44,10.40
2008,11,25,15,45,10.40
2008,11,25,15,46,10.40
2008,11,25,15,47,10.30
2008,11,25,15,48,10.30
2008,11,25,15,49,10.30
2008,11,25,15,50,10.30
2008,11,25,15,51,10.30
2008,11,25,15,52,10.30
2008,11,25,15,53,10.30
2008,11,25,15,54,10.30
2008,11,25,15,55,10.30
2008,11,25,15,56,10.30
2008,11,25,15,57,10.30
2008,11,25,15,58,10.30
2008,11,25,15,59,10.30
2008,11,25,16,00,10.30
2008,11,25,16,01,10.30
2008,11,25,16,02,10.30
2008,11,25,16,03,10.20
2008,11,25,16,04,10.20
2008,11,25,16,05,10.10
2008,11,25,16,06,10.10
2008,11,25,16,07,10.00
2008,11,25,16,08,10.00
2008,11,25,16,09,9.90
2008,11,25,16,10,9.80
2008,11,25,16,11,9.80
2008,11,25,16,12,9.70
2008,11,25,16,13,9.70
2008,11,25,16,14,9.70
2008,11,25,16,15,9.60
2008,11,25,16,16,9.70
2008,11,25,16,17,9.70
2008,11,25,16,18,9.70
2008,11,25,16,19,9.70
2008,11,25,16,20,9.70
2008,11,25,16,21,9.70
2008,11,25,16,22,9.60
2008,11,25,16,23,9.60
2008,11,25,16,24,9.60
2008,11,25,16,25,9.60
2008,11,25,16,26,9.60
2008,11,25,16,27,9.70
2008,11,25,16,28,9.70
2008,11,25,16,29,9.70
2008,11,25,16,30,9.70
2008,11,25,16,31,9.70
2008,11,25,16,32,9.70
2008,11,25,16,33,9.70
2008,11,25,16,34,9.70
2008,11,25,16,35,9.70
2008,11,25,16,36,9.70
2008,11,25,16,37,9.60
2008,11,25,16,38,9.60
2008,11,25,16,39,9.60
2008,11,25,16,40,9.60
2008,11,25,16,41,9.60
2008,11,25,16,42,9.60
2008,11,25,16,43,9.60
2008,11,25,16,44,9.60
2008,11,25,16,45,9.60
2008,11,25,16,46,9.60
2008,11,25,16,47,9.60
2008,11,25,16,48,9.60
2008,11,25,16,49,9.60
2008,11,25,16,50,9.60
2008,11,25,16,51,9.50
2008,11,25,16,52,9.50
2008,11,25,16,53,9.50
2008,11,25,16,54,9.50
2008,11,25,16,55,9.50
2008,11,25,16,56,9.50
2008,11,25,16,57,9.50
2008,11,25,16,58,9.40
2008,11,25,16,59,9.40
2008,11,25,17,00,9.40
2008,11,25,17,01,9.40
2008,11,25,17,02,9.40
2008,11,25,17,03,9.30
2008,11,25,17,04,9.30
2008,11,25,17,05,9.30
2008,11,25,17,06,9.30
2008,11,25,17,07,9.30
2008,11,25,17,08,9.40
2008,11,25,17,09,9.40
2008,11,25,17,10,9.40
2008,11,25,17,11,9.40
2008,11,25,17,12,9.40
2008,11,25,17,13,9.40
2008,11,25,17,14,9.40
2008,11,25,17,15,9.40
2008,11,25,17,16,9.30
2008,11,25,17,17,9.30
2008,11,25,17,18,9.30
2008,11,25,17,19,9.30
2008,11,25,17,20,9.30
2008,11,25,17,21,9.20
2008,11,25,17,22,9.20
2008,11,25,17,23,9.20
2008,11,25,17,24,9.20
2008,11,25,17,25,9.20
2008,11,25,17,26,9.10
2008,11,25,17,27,9.10
2008,11,25,17,28,9.10
2008,11,25,17,29,9.10
2008,11,25,17,30,9.00
2008,11,25,17,31,9.00
2008,11,25,17,32,9.00
2008,11,25,17,33,9.00
2008,11,25,17,34,9.00
2008,11,25,17,35,9.00
2008,11,25,17,36,9.00
2008,11,25,17,37,9.00
2008,11,25,17,38,9.10
2008,11,25,17,39,9.10
2008,11,25,17,40,9.10
2008,11,25,17,41,9.10
2008,11,25,17,42,9.10
2008,11,25,17,43,9.10
2008,11,25,17,44,9.10
2008,11,25,17,45,9.10
2008,11,25,17,46,9.10
2008,11,25,17,47,9.10
2008,11,25,17,48,9.10
2008,11,25,17,49,9.10
2008,11,25,17,50,9.00
2008,11,25,17,51,9.00
2008,11,25,17,52,9.00
2008,11,25,17,53,9.00
2008,11,25,17,54,9.00
2008,11,25,17,55,9.00
2008,11,25,17,56,8.90
2008,11,25,17,57,8.90
2008,11,25,17,58,8.90